• en France
  • Liste des pays
  • À 7 jours
  • Température de l'eau
  • Carte satellitaire
  • Carte météo
  • Widgets météo
  • user-avatar
    Se connecter

    Météo par heure à Izabelin

    Ce jour, 16 Octobre, Mardi

    Heure Température Précipitation Vent Pression Humidité
    00:00 +13°C° 0 mm 3 m/s 756 mmHg 54%
    01:00 +14°C° 0 mm 4 m/s 756 mmHg 53%
    02:00 +13°C° 0 mm 4 m/s 756 mmHg 54%
    03:00 +13°C° 0 mm 3 m/s 756 mmHg 55%
    04:00 +12°C° 0 mm 3 m/s 756 mmHg 55%
    05:00 +12°C° 0 mm 3 m/s 756 mmHg 56%
    06:00 +12°C° 0 mm 3 m/s 756 mmHg 57%
    07:00 +12°C° 0 mm 3 m/s 757 mmHg 56%
    08:00 +14°C° 0 mm 3 m/s 757 mmHg 52%
    09:00 +17°C° 0 mm 3 m/s 757 mmHg 48%
    10:00 +18°C° 0 mm 3 m/s 757 mmHg 43%
    11:00 +19°C° 0 mm 3 m/s 757 mmHg 41%
    12:00 +21°C° 0 mm 3 m/s 757 mmHg 38%
    13:00 +22°C° 0 mm 4 m/s 757 mmHg 36%
    14:00 +21°C° 0 mm 3 m/s 756 mmHg 38%
    15:00 +21°C° 0 mm 3 m/s 756 mmHg 41%
    16:00 +20°C° 0 mm 2 m/s 756 mmHg 44%
    17:00 +19°C° 0 mm 2 m/s 756 mmHg 46%
    18:00 +18°C° 0 mm 2 m/s 756 mmHg 48%
    19:00 +17°C° 0 mm 3 m/s 756 mmHg 50%
    20:00 +16°C° 0 mm 3 m/s 757 mmHg 51%
    21:00 +16°C° 0 mm 3 m/s 757 mmHg 53%
    22:00 +14°C° 0 mm 3 m/s 757 mmHg 54%
    23:00 +14°C° 0 mm 3 m/s 757 mmHg 55%

    Demain, 17 Octobre, Mercredi

    Heure Température Précipitation Vent Pression Humidité
    00:00 +15°C° 0 mm 2 m/s 757 mmHg 57%
    01:00 +14°C° 0 mm 2 m/s 757 mmHg 58%
    02:00 +14°C° 0 mm 2 m/s 757 mmHg 59%
    03:00 +14°C° 0 mm 2 m/s 757 mmHg 60%
    04:00 +13°C° 0 mm 2 m/s 757 mmHg 61%
    05:00 +13°C° 0 mm 2 m/s 757 mmHg 61%
    06:00 +13°C° 0 mm 2 m/s 757 mmHg 61%
    07:00 +13°C° 0 mm 2 m/s 757 mmHg 61%
    08:00 +15°C° 0 mm 2 m/s 757 mmHg 56%
    09:00 +17°C° 0 mm 3 m/s 757 mmHg 50%
    10:00 +19°C° 0 mm 3 m/s 757 mmHg 44%
    11:00 +20°C° 0 mm 3 m/s 757 mmHg 42%
    12:00 +21°C° 0 mm 3 m/s 757 mmHg 39%
    13:00 +22°C° 0 mm 3 m/s 757 mmHg 36%
    14:00 +21°C° 0 mm 3 m/s 756 mmHg 39%
    15:00 +21°C° 0 mm 2 m/s 756 mmHg 42%
    16:00 +20°C° 0 mm 2 m/s 756 mmHg 45%
    17:00 +19°C° 0 mm 2 m/s 756 mmHg 47%
    18:00 +18°C° 0 mm 2 m/s 756 mmHg 49%
    19:00 +17°C° 0 mm 2 m/s 756 mmHg 51%
    20:00 +16°C° 0 mm 2 m/s 756 mmHg 52%
    21:00 +16°C° 0 mm 2 m/s 756 mmHg 53%
    22:00 +16°C° 0 mm 2 m/s 756 mmHg 55%
    23:00 +16°C° 0 mm 2 m/s 756 mmHg 56%

    Après-demain, 18 Octobre, Jeudi

    Heure Température Précipitation Vent Pression Humidité
    00:00 +14°C° 0 mm 3 m/s 756 mmHg 58%
    01:00 +14°C° 0 mm 3 m/s 756 mmHg 60%
    02:00 +15°C° 0.3 mm 2 m/s 756 mmHg 65%
    03:00 +15°C° 0.3 mm 2 m/s 756 mmHg 70%
    04:00 +14°C° 0.3 mm 2 m/s 756 mmHg 76%
    05:00 +14°C° 0.1 mm 2 m/s 756 mmHg 77%
    06:00 +14°C° 0.1 mm 2 m/s 756 mmHg 79%
    07:00 +14°C° 0.1 mm 1 m/s 756 mmHg 80%
    08:00 +15°C° 0 mm 1 m/s 756 mmHg 74%
    09:00 +16°C° 0 mm 2 m/s 756 mmHg 67%
    10:00 +18°C° 0 mm 2 m/s 756 mmHg 60%
    11:00 +18°C° 0 mm 2 m/s 756 mmHg 56%
    12:00 +19°C° 0 mm 2 m/s 755 mmHg 52%
    13:00 +20°C° 0 mm 2 m/s 755 mmHg 48%
    14:00 +20°C° 0 mm 2 m/s 755 mmHg 51%
    15:00 +19°C° 0 mm 2 m/s 755 mmHg 53%
    16:00 +20°C° 0 mm 1 m/s 755 mmHg 56%
    17:00 +19°C° 0 mm 1 m/s 755 mmHg 59%
    18:00 +18°C° 0 mm 1 m/s 755 mmHg 63%
    19:00 +15°C° 0 mm 1 m/s 756 mmHg 67%
    20:00 +15°C° 0 mm 2 m/s 756 mmHg 69%
    21:00 +14°C° 0 mm 2 m/s 756 mmHg 72%
    22:00 +14°C° 0 mm 2 m/s 756 mmHg 74%
    23:00 +13°C° 0 mm 2 m/s 756 mmHg 77%

    19 Octobre, Vendredi

    Heure Température Précipitation Vent Pression Humidité
    00:00 +13°C° 0 mm 2 m/s 756 mmHg 79%
    01:00 +12°C° 0 mm 2 m/s 756 mmHg 82%
    02:00 +12°C° 0 mm 2 m/s 756 mmHg 84%
    03:00 +12°C° 0 mm 2 m/s 756 mmHg 87%
    04:00 +12°C° 0 mm 2 m/s 757 mmHg 89%
    05:00 +12°C° 0 mm 2 m/s 757 mmHg 90%
    06:00 +12°C° 0 mm 2 m/s 757 mmHg 91%
    07:00 +12°C° 0 mm 2 m/s 757 mmHg 92%
    08:00 +13°C° 0 mm 2 m/s 757 mmHg 86%
    09:00 +14°C° 0 mm 2 m/s 758 mmHg 80%
    10:00 +14°C° 0 mm 3 m/s 758 mmHg 74%
    11:00 +16°C° 0 mm 3 m/s 758 mmHg 71%
    12:00 +16°C° 0 mm 3 m/s 758 mmHg 68%
    13:00 +17°C° 0 mm 3 m/s 758 mmHg 65%
    14:00 +17°C° 0 mm 3 m/s 758 mmHg 66%
    15:00 +16°C° 0 mm 2 m/s 758 mmHg 66%
    16:00 +16°C° 0 mm 2 m/s 758 mmHg 67%
    17:00 +15°C° 0 mm 2 m/s 758 mmHg 71%
    18:00 +14°C° 0 mm 2 m/s 758 mmHg 74%
    19:00 +13°C° 0 mm 2 m/s 759 mmHg 78%
    20:00 +12°C° 0 mm 2 m/s 759 mmHg 79%
    21:00 +12°C° 0 mm 1 m/s 759 mmHg 79%
    22:00 +12°C° 0 mm 1 m/s 759 mmHg 79%
    23:00 +11°C° 0 mm 1 m/s 759 mmHg 79%

    20 Octobre, Samedi

    Heure Température Précipitation Vent Pression Humidité
    00:00 +11°C° 0 mm 1 m/s 759 mmHg 79%
    01:00 +11°C° 0 mm 1 m/s 759 mmHg 79%
    02:00 +11°C° 0 mm 1 m/s 759 mmHg 80%
    03:00 +10°C° 0 mm 1 m/s 759 mmHg 82%
    04:00 +10°C° 0 mm 1 m/s 759 mmHg 83%
    05:00 +9°C° 0 mm 1 m/s 759 mmHg 84%
    06:00 +8°C° 0 mm 2 m/s 759 mmHg 85%
    07:00 +8°C° 0 mm 2 m/s 759 mmHg 87%
    08:00 +9°C° 0 mm 2 m/s 759 mmHg 81%
    09:00 +10°C° 0 mm 2 m/s 759 mmHg 74%
    10:00 +11°C° 0 mm 3 m/s 760 mmHg 68%
    11:00 +11°C° 0 mm 3 m/s 759 mmHg 64%
    12:00 +12°C° 0 mm 4 m/s 759 mmHg 59%
    13:00 +12°C° 0 mm 4 m/s 759 mmHg 55%
    14:00 +12°C° 0 mm 4 m/s 759 mmHg 56%
    15:00 +11°C° 0 mm 4 m/s 759 mmHg 57%
    16:00 +11°C° 0 mm 3 m/s 759 mmHg 59%
    17:00 +10°C° 0 mm 3 m/s 759 mmHg 61%
    18:00 +10°C° 0 mm 3 m/s 759 mmHg 63%
    19:00 +9°C° 0 mm 3 m/s 759 mmHg 66%
    20:00 +9°C° 0 mm 3 m/s 760 mmHg 69%
    21:00 +9°C° 0 mm 3 m/s 760 mmHg 72%
    22:00 +8°C° 0 mm 3 m/s 760 mmHg 75%
    23:00 +8°C° 0 mm 2 m/s 760 mmHg 79%

    21 Octobre, Dimanche

    Heure Température Précipitation Vent Pression Humidité
    00:00 +7°C° 0 mm 2 m/s 760 mmHg 83%
    01:00 +7°C° 0 mm 2 m/s 760 mmHg 86%
    02:00 +7°C° 0 mm 2 m/s 760 mmHg 88%
    03:00 +6°C° 0 mm 2 m/s 760 mmHg 89%
    04:00 +7°C° 0 mm 1 m/s 760 mmHg 91%
    05:00 +7°C° 0 mm 1 m/s 760 mmHg 91%
    06:00 +7°C° 0 mm 1 m/s 761 mmHg 92%
    07:00 +6°C° 0 mm 1 m/s 761 mmHg 92%
    08:00 +8°C° 0 mm 1 m/s 761 mmHg 85%
    09:00 +9°C° 0 mm 1 m/s 761 mmHg 77%
    10:00 +11°C° 0 mm 1 m/s 761 mmHg 69%
    11:00 +12°C° 0 mm 1 m/s 761 mmHg 65%
    12:00 +12°C° 0 mm 1 m/s 761 mmHg 60%
    13:00 +13°C° 0 mm 1 m/s 761 mmHg 55%
    14:00 +13°C° 0 mm 1 m/s 761 mmHg 57%
    15:00 +13°C° 0 mm 1 m/s 761 mmHg 59%
    16:00 +12°C° 0 mm 1 m/s 760 mmHg 61%
    17:00 +12°C° 0 mm 1 m/s 761 mmHg 64%
    18:00 +11°C° 0 mm 1 m/s 761 mmHg 68%
    19:00 +10°C° 0 mm 1 m/s 761 mmHg 71%
    20:00 +9°C° 0 mm 1 m/s 761 mmHg 73%
    21:00 +9°C° 0 mm 1 m/s 761 mmHg 76%
    22:00 +8°C° 0 mm 2 m/s 761 mmHg 78%
    23:00 +7°C° 0 mm 2 m/s 761 mmHg 80%
    Voir plus